Home > Weather > Toulon > Past weeks

Flag for France Weather for the Past 2 Weeks in Toulon, France

Now
54 °F

Clear.


Feels Like: 51 °F
Forecast: 45 / 52 °F
Wind: 8 mph from Northwest

Location: Hyeres Airport

Current Time: Feb 9, 2016 at 10:13:48 PM

Latest Report: Feb 9, 2016 at 9:30 PM


Visibility: 10 mi

Pressure: 29.62 "Hg

Humidity: 72%

Dew point: 45 °F

Location of ToulonLocation

Historic Weather in Toulon — Graph

°F

Toulon Temperature Yesterday

Maximum temperature yesterday: 59 °F (at 11:00 AM)
Minimum temperature yesterday: 45 °F (at 12:30 AM)
Average temperature yesterday: 54 °F

High & Low Weather Summary for the Past Weeks

 TemperatureHumidityPressure
High64 °F (Feb 1, 2:30 AM)100% (Jan 29, 11:30 PM)30.48 "Hg (Jan 29, 11:30 PM)
Low43 °F (Feb 3, 2:30 AM)31% (Feb 3, 5:30 PM)29.56 "Hg (Feb 9, 5:00 PM)
Average55 °F74%30.23 "Hg
* Reported Jan 25 8:00 PM — Feb 9 8:30 PM, Toulon, Weather by CustomWeather, © 2016

Note: Actual official high and low records may vary slightly from our data, if they occured in-between our weather recording intervals... More about our weather records

Advertising

Toulon Weather History for the Previous 24 Hours

 ConditionsComfort  
Time TempWeatherWind HumidityBarometerVisibility
8:30 PM
Tue, Feb 9
55 °FLight rain. Partly cloudy.20 mph67%29.62 "HgN/A
8:00 PM55 °FClear.7 mph88%29.56 "Hg6 mi
7:30 PM55 °FClear.5 mph88%29.56 "Hg6 mi
7:00 PM55 °FClear.2 mph88%29.56 "Hg6 mi
6:30 PM57 °FPassing clouds.6 mph82%29.56 "HgN/A
6:00 PM57 °FOvercast.7 mph82%29.56 "HgN/A
5:00 PM57 °FOvercast.9 mph82%29.56 "HgN/A
4:30 PM57 °FOvercast.9 mph82%29.59 "HgN/A
4:00 PM57 °FMore clouds than sun.12 mph82%29.59 "HgN/A
3:30 PM57 °FMostly cloudy.16 mph82%29.62 "HgN/A
3:00 PM57 °FMore clouds than sun.14 mph82%29.68 "HgN/A
2:30 PM57 °FOvercast.12 mph82%29.71 "HgN/A
2:00 PM57 °FOvercast.14 mph88%29.74 "HgN/A
1:30 PM59 °FMore clouds than sun.15 mph77%29.77 "HgN/A
1:00 PM59 °FMostly cloudy.13 mph77%29.80 "HgN/A
12:30 PM59 °FPartly sunny.12 mph77%29.83 "HgN/A
11:30 AM57 °FMostly cloudy.14 mph88%29.86 "HgN/A
11:00 AM59 °FMostly cloudy.12 mph82%29.89 "HgN/A
10:30 AM59 °FMostly cloudy.13 mph82%29.92 "HgN/A
10:00 AM57 °FOvercast.10 mph88%29.92 "HgN/A
9:00 AM48 °FMostly cloudy.1 mph94%29.95 "HgN/A
8:30 AM46 °FMostly cloudy.No wind93%29.95 "HgN/A
8:00 AM46 °FMostly cloudy.No wind87%29.98 "HgN/A
7:30 AM46 °FPassing clouds.No wind87%29.95 "HgN/A
7:00 AM46 °FPassing clouds.3 mph93%29.98 "HgN/A
6:30 AM46 °FOvercast.No wind87%30.01 "HgN/A
5:30 AM46 °FPassing clouds.5 mph87%30.01 "HgN/A
4:30 AM52 °FClear.1 mph77%30.01 "Hg10 mi
4:00 AM54 °FClear.3 mph72%30.04 "Hg10 mi
3:00 AM57 °FClear.5 mph67%30.04 "Hg10 mi
2:30 AM54 °FClear.2 mph72%30.04 "Hg10 mi
2:00 AM55 °FClear.2 mph63%30.07 "Hg10 mi
1:30 AM57 °FClear.1 mph63%30.07 "Hg10 mi
1:00 AM57 °FPassing clouds.7 mph63%30.09 "HgN/A
12:30 AM57 °FClear.2 mph63%30.09 "Hg10 mi
12:00 AM57 °FClear.12 mph63%30.09 "Hg10 mi
11:30 PM
Mon, Feb 8
57 °FClear.14 mph63%30.09 "Hg10 mi
11:00 PM55 °FClear.14 mph67%30.09 "Hg10 mi
10:30 PM55 °FClear.13 mph67%30.09 "Hg10 mi
10:00 PM55 °FClear.14 mph67%30.09 "Hg10 mi
Weather by CustomWeather, © 2016

See weather overviewHow to use our weather pages